Sigonella, Italy

10:18 PM CEST on September 26, 2017 (GMT +0200)
Sigonella Mil

Weather History for LICZ - May, 2013

Change the Weather History Date:

Tuesday, May 14, 2013

  Actual Average Record
Temperature  
Mean Temperature 69 °F -  
Max Temperature 82 °F 82 °F 91 °F (1999)
Min Temperature 56 °F 57 °F 48 °F (2001)
Cooling Degree Days 4    
Growing Degree Days 19 (Base 50)    
Moisture  
Dew Point 49 °F    
Average Humidity 52    
Maximum Humidity 82    
Minimum Humidity 19    
Precipitation  
Precipitation 0.00 in 0.02 in - ()
Sea Level Pressure  
Sea Level Pressure 29.96 in    
Wind  
Wind Speed 9 mph ()    
Max Wind Speed 21 mph    
Max Gust Speed -    
Visibility 6.7 miles    
Events      
Averages and records for this station are not official NWS values.
T = Trace of Precipitation, MM = Missing Value Source: Averaged Metar Reports

Daily Weather History Graph

Daily Weather History Graph

Search for Another Location

Airport or City:

Trip Planner

Search our weather history database for the weather conditions in past years. The results will help you decide how hot, cold, wet, or windy it might be!

Date:

Astronomy

May. 14, 2013 Rise Set
Actual Time 5:52 AM CEST 8:01 PM CEST
Civil Twilight 5:23 AM CEST 8:30 PM CEST
Nautical Twilight 4:47 AM CEST 9:06 PM CEST
Astronomical Twilight 4:08 AM CEST 9:45 PM CEST
Moon 9:16 AM CEST (5/14) 11:38 PM CEST (5/14)
Length of Visible Light 15h 07m
Length of Day
14h 09m
Waxing Crescent, 17% of the Moon is Illuminated
May 14
Waxing Crescent
May 18
First Quarter
May 25
Full
May 31
Last Quarter
Jun 8
New

Hourly Weather History & Observations

Time (CEST) Temp. Dew Point Humidity Pressure Visibility Wind Dir Wind Speed Gust Speed Precip Events Conditions
12:55 AM 60.8 °F 51.8 °F 72% 29.98 in - West 11.5 mph - N/A   Clear
1:55 AM 60.8 °F 51.8 °F 72% 29.98 in - West 11.5 mph - N/A   Clear
2:00 AM 62 °F 53 °F 63% 29.99 in 10 mi West 11.5 mph - -  
2:55 AM 60.8 °F 48.2 °F 63% 29.98 in - WNW 2.3 mph - N/A   Clear
3:55 AM 59.0 °F 50.0 °F 72% 29.95 in - West 6.9 mph - N/A   Clear
4:55 AM 57.2 °F 51.8 °F 82% 29.95 in - West 9.2 mph - N/A   Clear
5:00 AM 58 °F 52 °F 73% 29.98 in 10 mi West 9.2 mph - -  
5:55 AM 57.2 °F 51.8 °F 82% 29.98 in 6.2 mi WNW 9.2 mph - N/A   Partly Cloudy
6:55 AM 57.2 °F 51.8 °F 82% 29.98 in 6.2 mi NNW 4.6 mph - N/A   Partly Cloudy
7:55 AM 62.6 °F 55.4 °F 77% 30.01 in 6.2 mi WNW 6.9 mph - N/A   Partly Cloudy
8:00 AM 63 °F 54 °F 66% 30.01 in 10 mi WNW 6.9 mph - -   Scattered Clouds
8:55 AM 68.0 °F 53.6 °F 60% 30.01 in 6.2 mi NW 5.8 mph - N/A   Partly Cloudy
9:55 AM 73.4 °F 50.0 °F 44% 29.98 in 6.2 mi NW 4.6 mph - N/A   Partly Cloudy
10:55 AM 75.2 °F 48.2 °F 38% 29.98 in 6.2 mi WNW 4.6 mph - N/A   Partly Cloudy
11:00 AM 75 °F 48 °F 27% 29.99 in 6 mi WNW 4.6 mph - -   Scattered Clouds
12:55 PM 80.6 °F 48.2 °F 32% 29.95 in 6.2 mi East 15.0 mph - N/A   Partly Cloudy
1:55 PM 80.6 °F 46.4 °F 30% 29.95 in 6.2 mi East 16.1 mph - N/A   Partly Cloudy
2:00 PM 80 °F 46 °F 20% 29.96 in 6 mi East 16.1 mph - -   Scattered Clouds
2:55 PM 78.8 °F 42.8 °F 28% 29.95 in 6.2 mi East 16.1 mph - N/A   Partly Cloudy
3:55 PM 78.8 °F 42.8 °F 28% 29.95 in 6.2 mi East 17.3 mph - N/A   Partly Cloudy
4:55 PM 77.0 °F 42.8 °F 29% 29.92 in 6.2 mi East 20.7 mph - N/A   Partly Cloudy
5:00 PM 77 °F 43 °F 19% 29.94 in 6 mi East 20.7 mph - -   Scattered Clouds
5:55 PM 75.2 °F 44.6 °F 34% 29.92 in - ENE 17.3 mph - N/A   Clear
6:55 PM 73.4 °F 46.4 °F 38% 29.95 in - NNW 6.9 mph - N/A   Clear
7:55 PM 73.4 °F 46.4 °F 38% 29.95 in - NE 10.4 mph - N/A   Clear
8:00 PM 73 °F 47 °F 28% 29.94 in 6 mi NE 10.4 mph - -   Clear
8:55 PM 68.0 °F 48.2 °F 49% 29.95 in 6.2 mi WNW 4.6 mph - N/A   Partly Cloudy
9:55 PM 66.2 °F 53.6 °F 64% 29.95 in 6.2 mi SSW 4.6 mph - N/A   Partly Cloudy
10:55 PM 60.8 °F 51.8 °F 72% 29.92 in 6.2 mi NNE 2.3 mph - N/A   Partly Cloudy
11:00 PM 60 °F 51 °F 65% 29.93 in 6 mi NNE 2.3 mph - -   Scattered Clouds
11:55 PM 59.0 °F 50.0 °F 72% 29.92 in 6.2 mi SW 2.3 mph - N/A   Partly Cloudy